Location: Brookview Estates
(36.0476°N, 86.6931°W)
Time: 10:02:59
(UTC+00:00)

Cosmos 2333 Rocket - Visible Passes

Search period start: 11 August 2020 00:00
Search period end: 21 August 2020 00:00
Orbit: 837 x 864 km, 70.8° (Epoch: 10 August)

Date Brightness Start Highest point End Pass type
(mag) Time Alt. Az. Time Alt. Az. Time Alt. Az.
11 Aug 3.9 05:01:22 10° N 05:04:29 28° NNE 05:04:29 28° NNE visible
11 Aug 4.8 06:46:11 10° NW 06:46:27 11° NW 06:46:27 11° NW visible
12 Aug 3.9 04:49:03 10° N 04:52:11 28° NNE 04:52:11 28° NNE visible
12 Aug 4.8 06:33:51 10° NW 06:34:09 11° NW 06:34:09 11° NW visible
13 Aug 3.8 04:36:43 10° N 04:39:54 29° NNE 04:39:54 29° NNE visible
13 Aug 4.8 06:21:32 10° NW 06:21:53 11° NW 06:21:53 11° NW visible
14 Aug 3.8 04:24:24 10° N 04:27:40 29° NNE 04:27:40 29° NNE visible
14 Aug 4.8 06:09:12 10° NW 06:09:39 12° NW 06:09:39 12° NW visible
15 Aug 3.7 04:12:04 10° N 04:15:27 30° NNE 04:15:27 30° NNE visible
15 Aug 4.8 05:56:52 10° NW 05:57:26 12° NW 05:57:26 12° NW visible
16 Aug 3.6 03:59:45 10° N 04:03:17 31° NNE 04:03:17 31° NNE visible
16 Aug 4.8 05:44:33 10° NW 05:45:16 13° NW 05:45:16 13° NW visible
17 Aug 3.5 03:47:26 10° N 03:51:08 32° NNE 03:51:08 32° NNE visible
17 Aug 4.7 05:32:14 10° NW 05:33:07 14° NW 05:33:07 14° NW visible
18 Aug 3.4 03:35:06 10° N 03:39:01 34° NNE 03:39:01 34° NNE visible
18 Aug 4.7 05:19:54 10° NW 05:21:00 15° WNW 05:21:00 15° WNW visible
19 Aug 3.3 03:22:46 10° N 03:26:55 35° NNE 03:26:55 35° NNE visible
19 Aug 4.6 05:07:35 10° NW 05:08:55 16° WNW 05:08:55 16° WNW visible
20 Aug 3.1 03:10:28 10° N 03:14:52 37° NE 03:14:52 37° NE visible
20 Aug 4.5 04:55:15 10° NW 04:56:52 17° WNW 04:56:52 17° WNW visible
